Satellite-Ground Cal/Val Region Overpasses Predictions

Prediction of Satellite NPP Overpassing Cal/Val Region: PacNW

Region Location: (Latitude: 10.00, Longitude: 139.50) to (Latitude: 22.70, Longitude: 165.60).

Table of predicted overpasses for the next 14.0 days since TLE Epoch: 5/14/2017
Interval Starting Time Starting Location Ending Time Ending Location
1 05/15/2017 02:10:07 ( 19.67, 165.59) 05/15/2017 02:10:58 ( 22.66, 164.85)
2 05/15/2017 03:48:53 ( 10.05, 142.48) 05/15/2017 03:52:26 ( 22.55, 139.50)
3 05/15/2017 14:39:16 ( 22.69, 165.10) 05/15/2017 14:42:52 ( 10.01, 162.08)
4 05/15/2017 16:20:46 ( 22.69, 139.72) 05/15/2017 16:21:01 ( 21.81, 139.50)
5 05/16/2017 03:29:51 ( 10.01, 147.25) 05/16/2017 03:33:27 ( 22.69, 144.23)
6 05/16/2017 16:01:44 ( 22.67, 144.48) 05/16/2017 16:05:19 ( 10.05, 141.47)
7 05/17/2017 03:10:49 ( 10.03, 152.00) 05/17/2017 03:14:24 ( 22.65, 149.00)
8 05/17/2017 15:42:43 ( 22.65, 149.23) 05/17/2017 15:46:18 ( 10.03, 146.23)
9 05/18/2017 02:51:48 ( 10.05, 156.75) 05/18/2017 02:55:23 ( 22.67, 153.75)
10 05/18/2017 15:23:41 ( 22.69, 154.00) 05/18/2017 15:27:17 ( 10.01, 150.98)
11 05/19/2017 02:32:45 ( 10.01, 161.52) 05/19/2017 02:36:21 ( 22.69, 158.50)
12 05/19/2017 15:04:39 ( 22.66, 158.75) 05/19/2017 15:08:14 ( 10.04, 155.75)
13 05/20/2017 02:14:34 ( 12.97, 165.60) 05/20/2017 02:17:19 ( 22.65, 163.27)
14 05/20/2017 03:55:14 ( 10.03, 140.90) 05/20/2017 03:56:56 ( 16.03, 139.51)
15 05/20/2017 14:45:38 ( 22.64, 163.50) 05/20/2017 14:49:13 ( 10.02, 160.50)
16 05/21/2017 03:36:12 ( 10.05, 145.65) 05/21/2017 03:39:47 ( 22.68, 142.65)
17 05/21/2017 14:29:46 ( 11.47, 165.59) 05/21/2017 14:30:11 ( 10.00, 165.25)
18 05/21/2017 16:08:05 ( 22.68, 142.89) 05/21/2017 16:11:40 ( 10.05, 139.89)
19 05/22/2017 03:17:10 ( 10.02, 150.42) 05/22/2017 03:20:46 ( 22.70, 147.40)
20 05/22/2017 15:49:04 ( 22.65, 147.65) 05/22/2017 15:52:39 ( 10.03, 144.64)
21 05/23/2017 02:58:08 ( 10.04, 155.17) 05/23/2017 03:01:43 ( 22.66, 152.17)
22 05/23/2017 15:30:01 ( 22.69, 152.41) 05/23/2017 15:33:37 ( 10.01, 149.40)
23 05/24/2017 02:39:06 ( 10.00, 159.94) 05/24/2017 02:42:42 ( 22.68, 156.92)
24 05/24/2017 15:11:00 ( 22.67, 157.17) 05/24/2017 15:14:35 ( 10.05, 154.16)
25 05/25/2017 02:20:05 ( 10.02, 164.69) 05/25/2017 02:23:40 ( 22.65, 161.69)
26 05/25/2017 14:51:58 ( 22.65, 161.92) 05/25/2017 14:55:33 ( 10.02, 158.91)
27 05/26/2017 03:42:33 ( 10.05, 144.07) 05/26/2017 03:46:08 ( 22.67, 141.06)
28 05/26/2017 14:34:12 ( 18.22, 165.59) 05/26/2017 14:36:32 ( 10.00, 163.67)
29 05/26/2017 16:14:26 ( 22.67, 141.31) 05/26/2017 16:16:33 ( 15.22, 139.50)
30 05/27/2017 03:23:31 ( 10.02, 148.83) 05/27/2017 03:27:07 ( 22.70, 145.81)
31 05/27/2017 15:55:24 ( 22.65, 146.06) 05/27/2017 15:58:59 ( 10.03, 143.06)
32 05/28/2017 03:04:29 ( 10.04, 153.58) 05/28/2017 03:08:04 ( 22.66, 150.58)


NCC Satellite Cal/Val Overpasses Prediction Service
